Bowling Green, KY

7:58 AM CDT on March 27, 2017 (GMT -0500)
Bowling Green-Warren County Regional

Weather History for KBWG - April, 2012

Change the Weather History Date:

Saturday, April 14, 2012

  Actual Average Record
Temperature  
Mean Temperature 67 °F 57 °F  
Max Temperature 82 °F 69 °F 88 °F (1919)
Min Temperature 51 °F 45 °F 22 °F (1950)
Degree Days  
Heating Degree Days 0 9  
Month to date heating degree days 99 147  
Since 1 July heating degree days 2881 3865  
Cooling Degree Days 2 1  
Month to date cooling degree days 32 13  
Year to date cooling degree days 90 18  
Growing Degree Days 17 (Base 50)    
Moisture  
Dew Point 49 °F    
Average Humidity 54    
Maximum Humidity 72    
Minimum Humidity 35    
Precipitation  
Precipitation T in 0.14 in 2.24 in (1893)
Month to date precipitation 0.25 1.89  
Year to date precipitation 10.77 13.87  
Snow  
Snow 0.00 in 0.00 in 0.50 in (1943)
Month to date snowfall 0.0 0.2  
Since 1 July snowfall 1.4 9.1  
Snow Depth 0.00 in    
Sea Level Pressure  
Sea Level Pressure 30.08 in    
Wind  
Wind Speed 11 mph (South)    
Max Wind Speed 28 mph    
Max Gust Speed 33 mph    
Visibility 10 miles    
Events      
T = Trace of Precipitation, MM = Missing Value Source: NWS Daily Summary

Daily Weather History Graph

Daily Weather History Graph

Search for Another Location

Airport or City:

Trip Planner

Search our weather history database for the weather conditions in past years. The results will help you decide how hot, cold, wet, or windy it might be!

Date:

Astronomy

Apr. 14, 2012 Rise Set
Actual Time 6:12 AM CDT 7:19 PM CDT
Civil Twilight 5:45 AM CDT 7:46 PM CDT
Nautical Twilight 5:13 AM CDT 8:18 PM CDT
Astronomical Twilight 4:40 AM CDT 8:51 PM CDT
Moon 2:26 AM CDT (4/14) 1:21 PM CDT (4/14)
Length of Visible Light 14h 01m
Length of Day
13h 07m
Last Quarter, 37% of the Moon is Illuminated
Apr 14
Last Quarter
Apr 21
New
Apr 29
First Quarter
May 5
Full
May 12
Last Quarter

Hourly Weather History & Observations

Time (CDT) Temp. Dew Point Humidity Pressure Visibility Wind Dir Wind Speed Gust Speed Precip Events Conditions
12:53 AM 57.0 °F 42.1 °F 57% 30.11 in 10.0 mi Calm Calm - N/A   Clear
1:53 AM 53.1 °F 44.1 °F 71% 30.11 in 10.0 mi Calm Calm - N/A   Clear
2:53 AM 53.1 °F 44.1 °F 71% 30.11 in 10.0 mi Calm Calm - N/A   Mostly Cloudy
3:53 AM 53.1 °F 45.0 °F 74% 30.10 in 10.0 mi Calm Calm - N/A   Mostly Cloudy
4:53 AM 55.0 °F 46.0 °F 72% 30.12 in 10.0 mi ESE 3.5 mph - N/A   Overcast
5:53 AM 55.9 °F 46.0 °F 69% 30.12 in 10.0 mi Calm Calm - N/A   Overcast
6:53 AM 57.0 °F 48.0 °F 72% 30.13 in 10.0 mi East 3.5 mph - N/A   Overcast
7:53 AM 63.0 °F 44.1 °F 50% 30.14 in 10.0 mi South 6.9 mph - N/A   Overcast
8:53 AM 66.9 °F 45.0 °F 45% 30.13 in 10.0 mi SSW 13.8 mph - 0.00 in   Partly Cloudy
9:53 AM 71.1 °F 44.1 °F 38% 30.13 in 10.0 mi SSW 20.7 mph 27.6 mph N/A   Scattered Clouds
10:53 AM 75.0 °F 46.0 °F 36% 30.12 in 10.0 mi SSW 23.0 mph 27.6 mph N/A   Clear
11:53 AM 78.1 °F 48.0 °F 35% 30.11 in 10.0 mi SSW 18.4 mph 28.8 mph N/A   Mostly Cloudy
12:53 PM 75.9 °F 48.0 °F 37% 30.09 in 10.0 mi SSW 21.9 mph 25.3 mph N/A   Clear
1:53 PM 81.0 °F 50.0 °F 34% 30.08 in 10.0 mi SSW 20.7 mph 27.6 mph N/A   Clear
2:53 PM 81.0 °F 51.1 °F 35% 30.05 in 10.0 mi SSW 16.1 mph 27.6 mph N/A   Clear
3:53 PM 81.0 °F 52.0 °F 36% 30.03 in 10.0 mi South 17.3 mph 24.2 mph N/A   Clear
4:53 PM 79.0 °F 51.1 °F 38% 30.01 in 10.0 mi South 17.3 mph 27.6 mph N/A   Clear
5:53 PM 77.0 °F 52.0 °F 42% 30.01 in 10.0 mi South 18.4 mph 23.0 mph N/A   Clear
6:53 PM 75.0 °F 52.0 °F 44% 30.00 in 10.0 mi South 16.1 mph 23.0 mph N/A   Clear
7:53 PM 73.0 °F 53.1 °F 49% 30.01 in 10.0 mi South 9.2 mph 17.3 mph N/A   Clear
8:53 PM 71.1 °F 54.0 °F 55% 30.03 in 10.0 mi South 6.9 mph - N/A   Clear
9:53 PM 68.0 °F 54.0 °F 61% 30.04 in 10.0 mi SE 3.5 mph - N/A   Clear
10:53 PM 68.0 °F 54.0 °F 61% 30.03 in 10.0 mi South 6.9 mph - N/A   Clear
11:53 PM 68.0 °F 54.0 °F 61% 30.01 in 10.0 mi South 9.2 mph - N/A   Clear